Location: El Gallo
(32.4380°N, 116.9347°W)
Time: 18:49:55
(UTC+00:00)

CZ-2C R/B - Pass Details

Date: 01 October 2022
Orbit: 667 x 784 km, 98.3° (Epoch: 01 December)

Event Time Altitude Azimuth Distance (km) Brightness Sun altitude
Rises 12:40:10 0° 345° (NNW) 3,184 5.6 -13.8°
Reaches altitude 10° 12:44:32 10° 309° (NW) 2,221 4.5 -12.9°
Enters shadow 12:44:45 10° 306° (NW) 2,203 4.4 -12.9°
